Westfield, MA

7:24 PM EST on January 20, 2017 (GMT -0500)
Barnes Municipal

Weather History for KBAF - May, 2013

Change the Weather History Date:

Thursday, May 23, 2013

  Actual Average Record
Temperature  
Mean Temperature 69 °F -  
Max Temperature 73 °F 67 °F 85 °F (1977)
Min Temperature 66 °F 46 °F 34 °F (2002)
Cooling Degree Days 4    
Growing Degree Days 19 (Base 50)    
Moisture  
Dew Point 65 °F    
Average Humidity 92    
Maximum Humidity 96    
Minimum Humidity 83    
Precipitation  
Precipitation 1.73 in - - ()
Sea Level Pressure  
Sea Level Pressure 29.84 in    
Wind  
Wind Speed 8 mph (South)    
Max Wind Speed 13 mph    
Max Gust Speed 21 mph    
Visibility 4 miles    
Events Fog , Rain , Thunderstorm    
Averages and records for this station are not official NWS values.
T = Trace of Precipitation, MM = Missing Value Source: NWS Daily Summary

Daily Weather History Graph

Daily Weather History Graph

Search for Another Location

Airport or City:

Trip Planner

Search our weather history database for the weather conditions in past years. The results will help you decide how hot, cold, wet, or windy it might be!

Date:

Astronomy

May. 23, 2013 Rise Set
Actual Time 5:22 AM EDT 8:13 PM EDT
Civil Twilight 4:49 AM EDT 8:46 PM EDT
Nautical Twilight 4:08 AM EDT 9:27 PM EDT
Astronomical Twilight 3:20 AM EDT 10:16 PM EDT
Moon 6:41 PM EDT (5/23) 4:07 AM EDT (5/23)
Length of Visible Light 15h 56m
Length of Day
14h 50m
Waxing Gibbous, 97% of the Moon is Illuminated
May 23
Waxing Gibbous
May 25
Full
May 31
Last Quarter
Jun 8
New
Jun 16
First Quarter

Hourly Weather History & Observations

Time (EDT) Temp. Dew Point Humidity Pressure Visibility Wind Dir Wind Speed Gust Speed Precip Events Conditions
12:53 AM 68.0 °F 66.0 °F 93% 29.86 in 4.0 mi South 6.9 mph - N/A   Overcast
1:53 AM 66.9 °F 64.9 °F 93% 29.85 in 4.0 mi South 6.9 mph - N/A   Overcast
2:53 AM 66.9 °F 64.9 °F 93% 29.83 in 4.0 mi SSE 9.2 mph - N/A   Overcast
3:53 AM 66.9 °F 64.0 °F 90% 29.82 in 5.0 mi South 6.9 mph - N/A   Overcast
4:53 AM 66.9 °F 64.9 °F 93% 29.84 in 4.0 mi South 9.2 mph - N/A   Overcast
5:45 AM 66.2 °F 64.4 °F 94% 29.84 in 2.0 mi SSE 8.1 mph - N/A   Overcast
5:53 AM 66.9 °F 64.9 °F 93% 29.85 in 2.0 mi SSE 8.1 mph - N/A   Overcast
6:28 AM 66.2 °F 64.4 °F 94% 29.86 in 3.0 mi South 9.2 mph - N/A   Overcast
6:53 AM 66.9 °F 64.0 °F 90% 29.86 in 4.0 mi SSE 9.2 mph - N/A   Overcast
7:53 AM 66.9 °F 64.0 °F 90% 29.88 in 3.0 mi South 6.9 mph - N/A   Overcast
8:16 AM 66.2 °F 64.4 °F 94% 29.88 in 1.5 mi South 8.1 mph - 0.08 in Rain Heavy Rain
8:24 AM 66.2 °F 64.4 °F 94% 29.87 in 0.5 mi SSE 9.2 mph - 0.31 in Fog , Rain Heavy Rain
8:31 AM 66.2 °F 64.4 °F 94% 29.87 in 2.0 mi South 9.2 mph - 0.31 in Rain Light Rain
8:40 AM 66.2 °F 64.4 °F 94% 29.87 in 3.0 mi South 8.1 mph - 0.31 in   Overcast
8:53 AM 66.9 °F 64.9 °F 93% 29.87 in 3.0 mi SSE 6.9 mph - 0.31 in   Overcast
9:53 AM 69.1 °F 66.0 °F 90% 29.86 in 6.0 mi South 9.2 mph - N/A   Overcast
10:36 AM 71.6 °F 66.2 °F 83% 29.87 in 7.0 mi SSE 9.2 mph - N/A   Overcast
10:53 AM 71.1 °F 66.9 °F 87% 29.87 in 8.0 mi South 9.2 mph - N/A   Overcast
11:53 AM 71.1 °F 68.0 °F 90% 29.86 in 4.0 mi SSE 3.5 mph - 0.02 in Rain Light Rain
12:21 PM 71.6 °F 68.0 °F 88% 29.86 in 4.0 mi SSE 11.5 mph - 0.00 in   Overcast
12:53 PM 72.0 °F 69.1 °F 91% 29.85 in 4.0 mi South 10.4 mph - 0.00 in   Overcast
1:53 PM 70.0 °F 66.9 °F 90% 29.84 in 4.0 mi South 12.7 mph 20.7 mph 0.01 in Rain Light Rain
2:14 PM 69.8 °F 66.2 °F 88% 29.86 in 2.5 mi South 9.2 mph - 0.04 in Rain Heavy Rain
2:25 PM 69.8 °F 66.2 °F 88% 29.85 in 1.2 mi South 10.4 mph - 0.14 in Rain Light Rain
2:32 PM 69.8 °F 66.2 °F 88% 29.86 in 3.0 mi SSE 9.2 mph - 0.15 in Rain Light Rain
2:46 PM 69.8 °F 66.2 °F 88% 29.86 in 2.5 mi South 8.1 mph - 0.18 in Rain Rain
2:53 PM 69.1 °F 66.9 °F 93% 29.86 in 2.0 mi South 8.1 mph - 0.21 in Rain Rain
3:02 PM 69.8 °F 66.2 °F 88% 29.85 in 1.8 mi South 6.9 mph - 0.03 in Rain Rain
3:33 PM 69.8 °F 66.2 °F 88% 29.84 in 1.8 mi South 4.6 mph - 0.15 in Rain Rain
3:53 PM 69.1 °F 68.0 °F 96% 29.83 in 2.0 mi SSE 5.8 mph - 0.20 in Rain Rain
3:56 PM 69.8 °F 66.2 °F 88% 29.83 in 2.5 mi SSE 5.8 mph - 0.00 in Rain Light Rain
3:58 PM 69.8 °F 66.2 °F 88% 29.83 in 3.0 mi South 8.1 mph - 0.00 in Rain Light Rain
4:48 PM 68.0 °F 64.4 °F 88% 29.82 in 6.0 mi South 12.7 mph - 0.08 in Rain , Thunderstorm Rain
4:53 PM 66.9 °F 64.9 °F 93% 29.83 in 5.0 mi South 12.7 mph - 0.09 in Rain , Thunderstorm Rain
5:03 PM 66.2 °F 64.4 °F 94% 29.83 in 4.0 mi South 9.2 mph - 0.04 in Rain Rain
5:28 PM 66.2 °F 64.4 °F 94% 29.84 in 2.5 mi South 8.1 mph - 0.16 in Rain Heavy Rain
5:32 PM 66.2 °F 64.4 °F 94% 29.84 in 3.0 mi South 9.2 mph - 0.18 in Rain Rain
5:42 PM 66.2 °F 64.4 °F 94% 29.83 in 2.5 mi SSE 8.1 mph - 0.22 in Rain Heavy Rain
5:53 PM 66.9 °F 64.9 °F 93% 29.84 in 2.0 mi South 11.5 mph - 0.27 in Rain Rain
6:53 PM 66.0 °F 64.9 °F 96% 29.83 in 2.0 mi SSW 5.8 mph - 0.21 in Rain Rain
7:00 PM 66.2 °F 64.4 °F 94% 29.84 in 3.0 mi South 6.9 mph - 0.01 in Rain Rain
7:53 PM 66.9 °F 64.9 °F 93% 29.82 in 3.0 mi South 9.2 mph - 0.07 in Rain Light Rain
8:53 PM 66.9 °F 64.9 °F 93% 29.81 in 4.0 mi SSE 10.4 mph - 0.11 in Rain Rain
8:55 PM 66.2 °F 64.4 °F 94% 29.81 in 2.0 mi SSE 9.2 mph - 0.01 in Rain Rain
9:53 PM 66.0 °F 64.0 °F 93% 29.80 in 2.0 mi SSE 9.2 mph - 0.20 in Rain Rain
10:00 PM 66.2 °F 64.4 °F 94% 29.80 in 6.0 mi South 9.2 mph - 0.01 in Rain Light Rain
10:21 PM 66.2 °F 64.4 °F 94% 29.80 in 10.0 mi South 9.2 mph - 0.02 in Rain Light Rain
10:53 PM 66.0 °F 64.0 °F 93% 29.78 in 10.0 mi South 9.2 mph - 0.02 in   Overcast
11:53 PM 66.0 °F 64.0 °F 93% 29.76 in 10.0 mi South 11.5 mph - 0.01 in Rain Light Rain